1514689201.23,41187,6.06,72404.8,-6.17,-7.11,-7.01,0,*5A
1514689202.43,41188,6.06,72406.3,-6.17,-7.23,-7.15,0,*51
1514689203.63,41189,6.06,72406.3,-6.17,-7.23,-7.23,0,*55
1514689204.83,41190,6.06,72410.8,-6.17,-7.15,-7.11,0,*59
1514689206.08,41191,6.06,72406.8,-6.19,-7.15,-7.05,0,*53
1514689207.32,41192,6.06,72414.3,-6.17,-7.01,-7.01,0,*5F
1514689208.57,41193,6.06,72404.8,-6.17,-7.01,-7.01,0,*5E
1514689209.79,41194,6.06,72406.8,-6.17,-7.11,-7.01,0,*58
1514689211.0,41195,6.06,72410.0,-6.17,-7.15,-7.15,0,*58
1514689212.2,41196,6.06,72414.5,-6.17,-7.15,-7.15,0,*5B
1514689213.39,41197,6.06,72408.8,-6.17,-7.23,-7.15,0,*5F
1514689214.6,41198,6.06,72378.8,-6.17,-7.15,-7.23,0,*50
1514689215.8,41199,6.06,72414.5,-6.17,-7.15,-7.15,0,*54
1514689217.04,41200,6.06,72402.3,-6.17,-7.01,-7.01,0,*57
1514689218.29,41201,6.06,72410.0,-6.17,-7.01,-7.01,0,*56
1514689219.54,41202,6.06,72410.0,-6.17,-7.01,-7.01,0,*55
1514689220.8,41203,6.06,72378.8,-6.19,-7.05,-7.05,0,*5A
1514689222.05,41204,6.06,72382.8,-6.17,-7.01,-7.01,0,*53
1514689223.3,41205,6.06,72376.3,-6.17,-7.01,-7.01,0,*52
1514689224.54,41206,6.06,72394.5,-6.17,-7.01,-7.01,0,*51
1514689225.79,41207,6.06,72392.3,-6.17,-7.01,-7.01,0,*50
1514689227.04,41208,6.06,72392.5,-6.17,-6.97,-7.01,0,*51
1514689228.28,41209,6.06,72406.5,-6.17,-7.01,-7.01,0,*5E
1514689229.53,41210,6.06,72416.5,-6.17,-7.01,-7.01,0,*56
1514689230.75,41211,6.06,72416.8,-6.17,-7.15,-7.01,0,*52
1514689231.98,41212,6.06,72424.0,-6.17,-7.01,-7.11,0,*55
1514689233.22,41213,6.06,72400.8,-6.17,-7.01,-7.01,0,*55
1514689234.48,41214,6.06,72404.0,-6.13,-6.97,-6.97,0,*56
1514689235.73,41215,6.06,72416.8,-6.13,-6.97,-6.97,0,*57
1514689236.98,41216,6.06,72418.8,-6.13,-6.97,-6.93,0,*50
1514689238.23,41217,6.06,72436.3,-6.13,-7.05,-6.97,0,*5F
1514689239.48,41218,6.06,72428.8,-6.13,-6.97,-6.97,0,*5A
1514689240.73,41219,6.06,72400.0,-6.13,-6.97,-6.97,0,*5B
1514689241.98,41220,6.06,72396.0,-6.13,-7.05,-6.97,0,*5B
1514689243.22,41221,6.06,72418.3,-6.13,-6.97,-7.05,0,*5A
1514689244.47,41222,6.06,72394.3,-6.13,-7.05,-6.97,0,*59
1514689245.7,41223,6.06,72388.0,-6.13,-7.05,-7.11,0,*57
1514689246.94,41224,6.06,72390.3,-6.13,-7.05,-7.05,0,*55
1514689248.18,41225,6.06,72388.5,-6.13,-6.97,-7.05,0,*5E
1514689249.43,41226,6.06,72392.3,-6.13,-7.05,-7.05,0,*57
1514689250.65,41227,6.06,72398.0,-6.13,-7.11,-7.05,0,*53
1514689251.85,41228,6.06,72392.5,-6.17,-7.15,-7.23,0,*58
1514689253.06,41229,6.06,72406.3,-6.13,-7.11,-7.11,0,*58
1514689254.3,41230,6.06,72406.8,-6.13,-6.97,-7.05,0,*5A
1514689255.56,41231,6.06,72402.5,-6.13,-6.97,-6.97,0,*51
1514689256.78,41232,6.06,72416.8,-6.13,-6.89,-6.93,0,*59
1514689258.03,41233,6.06,72422.0,-6.13,-6.93,-6.93,0,*53
1514689259.28,41234,6.06,72400.3,-6.13,-6.97,-6.93,0,*50
1514689260.53,41235,6.06,72402.3,-6.13,-6.97,-6.93,0,*51
1514689261.79,41236,6.06,72392.3,-6.13,-6.97,-6.97,0,*56
1514689263.01,41237,6.06,72404.0,-6.13,-7.05,-7.11,0,*52
1514689264.25,41238,6.06,72418.8,-6.13,-7.05,-7.05,0,*58
1514689265.51,41239,6.06,72420.0,-6.13,-6.97,-6.97,0,*59
1514689266.76,41240,6.06,72428.0,-6.13,-6.97,-6.97,0,*57
1514689268.01,41241,6.06,72432.5,-6.13,-6.97,-6.97,0,*56
1514689269.26,41242,6.06,72434.0,-6.13,-7.05,-6.97,0,*5F
1514689270.5,41243,6.06,72436.3,-6.13,-6.97,-7.05,0,*5E
1514689271.75,41244,6.06,72440.5,-6.13,-6.97,-6.97,0,*53
1514689273.0,41245,6.06,72442.0,-6.13,-6.97,-6.93,0,*56
1514689274.26,41246,6.06,72432.5,-6.13,-6.97,-6.97,0,*51
1514689275.5,41247,6.06,72432.5,-6.13,-7.05,-6.97,0,*5A
1514689276.76,41248,6.06,72438.5,-6.13,-6.97,-6.97,0,*5F
1514689277.98,41249,6.06,72438.5,-6.13,-6.93,-6.89,0,*55
1514689279.24,41250,6.06,72432.5,-6.13,-6.93,-6.93,0,*56
1514689280.49,41251,6.06,72430.0,-6.13,-6.93,-6.93,0,*57
1514689281.74,41252,6.06,72424.0,-6.13,-6.93,-6.93,0,*54
1514689282.99,41253,6.06,72430.5,-6.13,-7.05,-6.93,0,*5B
1514689284.23,41254,6.06,72434.8,-6.13,-6.97,-7.05,0,*58
1514689285.48,41255,6.06,72424.5,-6.13,-6.97,-7.05,0,*59
1514689286.72,41256,6.06,72428.8,-6.13,-7.05,-6.97,0,*5A
1514689287.97,41257,6.06,72428.8,-6.13,-7.05,-7.05,0,*51
1514689289.21,41258,6.06,72424.0,-6.13,-7.05,-6.97,0,*54
1514689290.46,41259,6.06,72424.8,-6.13,-6.97,-7.05,0,*55
1514689291.71,41260,6.06,72426.5,-6.13,-6.97,-6.97,0,*55
1514689292.94,41261,6.06,72430.8,-6.13,-7.05,-7.11,0,*51
1514689294.17,41262,6.06,72434.3,-6.13,-6.97,-7.11,0,*58
1514689295.41,41263,6.06,72432.3,-6.13,-7.05,-7.05,0,*56
1514689296.66,41264,6.06,72426.0,-6.13,-6.97,-6.97,0,*51
1514689297.91,41265,6.06,72416.8,-6.13,-6.97,-7.05,0,*5A
1514689299.14,41266,6.06,72420.3,-6.13,-7.05,-7.11,0,*56
1514689300.37,41267,6.06,72418.5,-6.13,-6.97,-7.11,0,*5D
1514689301.6,41268,6.06,72426.3,-6.13,-6.97,-7.11,0,*52
1514689302.83,41269,6.06,72416.0,-6.13,-6.97,-7.11,0,*53
1514689304.04,41270,6.06,72408.5,-6.13,-7.11,-7.19,0,*5C
1514689305.25,41271,6.06,72424.8,-6.13,-7.19,-7.11,0,*5D
1514689306.45,41272,6.06,72432.8,-6.13,-7.19,-7.19,0,*56
1514689307.66,41273,6.06,72442.0,-6.13,-7.11,-7.11,0,*57
1514689308.87,41274,6.06,72452.3,-6.13,-7.11,-7.11,0,*50
1514689310.11,41275,6.06,72436.3,-6.13,-7.05,-7.05,0,*51
1514689311.32,41276,6.06,72432.0,-6.13,-7.11,-7.11,0,*52
1514689312.56,41277,6.06,72420.5,-6.13,-7.05,-7.05,0,*53
1514689313.77,41278,6.13,72420.0,-6.17,-7.23,-7.23,0,*58
1514689314.97,41279,6.06,72426.3,-6.17,-7.15,-7.23,0,*5C
1514689316.17,41280,6.06,72406.8,-6.17,-7.23,-7.23,0,*5F
1514689317.38,41281,6.06,72438.8,-6.13,-7.11,-7.19,0,*52
1514689318.6,41282,6.06,72438.8,-6.13,-7.23,-7.31,0,*5A
1514689319.81,41283,6.06,72438.0,-6.13,-7.19,-7.23,0,*51
1514689321.01,41284,6.06,72430.0,-6.13,-7.23,-7.23,0,*5F
1514689322.24,41285,6.06,72426.8,-6.13,-7.23,-7.31,0,*5D
1514689323.47,41286,6.06,72410.8,-6.13,-7.23,-7.31,0,*5E
1514689324.67,41287,6.06,72398.8,-6.13,-7.19,-7.23,0,*55
1514689325.88,41288,6.06,72398.5,-6.13,-7.19,-7.19,0,*53
1514689327.1,41289,6.06,72384.5,-6.13,-7.23,-7.31,0,*51
1514689328.31,41290,6.06,72376.3,-6.13,-7.23,-7.23,0,*5A
1514689329.52,41291,6.06,72372.8,-6.13,-7.11,-7.11,0,*5B
1514689330.74,41292,6.06,72378.8,-6.13,-7.11,-7.05,0,*5D
1514689331.94,41293,6.06,72388.8,-6.17,-7.15,-7.15,0,*5D
1514689333.14,41294,6.06,72400.0,-6.17,-7.11,-7.15,0,*5E
1514689334.34,41295,6.06,72410.5,-6.17,-7.15,-7.15,0,*5B
1514689335.55,41296,6.06,72416.3,-6.17,-7.11,-7.11,0,*58
1514689336.75,41297,6.06,72420.8,-6.17,-7.15,-7.23,0,*5C
1514689338.01,41298,6.06,72422.3,-6.19,-7.23,-7.27,0,*5C
1514689339.21,41299,6.06,72420.0,-6.17,-7.15,-7.23,0,*52
1514689340.43,41300,6.06,72426.8,-6.17,-7.23,-7.27,0,*52
1514689341.63,41301,6.06,72430.5,-6.17,-7.15,-7.15,0,*57
1514689342.87,41302,6.06,72426.3,-6.19,-7.15,-7.19,0,*56
1514689344.11,41303,6.06,72416.5,-6.13,-6.97,-7.05,0,*5B
1514689345.32,41304,6.06,72416.0,-6.17,-7.11,-7.11,0,*52
1514689346.52,41305,6.06,72416.3,-6.17,-7.15,-7.23,0,*56
1514689347.72,41306,6.06,72418.3,-6.17,-7.15,-7.23,0,*55
1514689348.92,41307,6.06,72424.8,-6.17,-7.23,-7.23,0,*51
1514689350.13,41308,6.06,72420.5,-6.13,-7.11,-7.19,0,*52
1514689351.33,41309,6.06,72420.3,-6.17,-7.15,-7.15,0,*5F
1514689352.53,41310,6.06,72422.8,-6.17,-7.23,-7.23,0,*57
1514689353.76,41311,6.06,72420.8,-6.17,-7.27,-7.23,0,*52
1514689354.98,41312,6.06,72424.8,-6.17,-7.27,-7.23,0,*51
1514689356.26,41313,6.06,72430.5,-6.19,-7.27,-7.27,0,*5A
1514689357.46,41314,6.06,72438.3,-6.17,-7.15,-7.15,0,*53
1514689358.66,41315,6.06,72442.3,-6.13,-7.23,-7.19,0,*5F
1514689359.86,41316,6.06,72444.3,-6.17,-7.23,-7.23,0,*51
1514689361.06,41317,6.06,72444.3,-6.17,-7.11,-7.15,0,*54
1514689362.26,41318,6.06,72446.3,-6.17,-7.15,-7.15,0,*5F
1514689363.5,41319,6.06,72450.8,-6.19,-7.19,-7.19,0,*50
1514689364.7,41320,6.06,72446.0,-6.17,-7.15,-7.11,0,*50
1514689365.95,41321,6.06,72446.8,-6.19,-7.05,-7.15,0,*5A
1514689367.16,41322,6.06,72436.8,-6.17,-7.11,-7.11,0,*56
1514689368.36,41323,6.06,72428.5,-6.17,-7.11,-7.15,0,*53
1514689369.57,41324,6.06,72424.5,-6.17,-7.15,-7.23,0,*55
1514689370.77,41325,6.06,72416.8,-6.17,-7.15,-7.15,0,*51
1514689371.97,41326,6.06,72416.8,-6.17,-7.15,-7.23,0,*57
1514689373.17,41327,6.06,72406.8,-6.17,-7.15,-7.23,0,*56
1514689374.4,41328,6.06,72406.0,-6.17,-7.23,-7.27,0,*58
1514689375.6,41329,6.06,72400.8,-6.17,-7.23,-7.23,0,*5D
1514689376.87,41330,6.06,72408.3,-6.19,-7.39,-7.39,0,*5B
1514689378.14,41331,6.06,72396.5,-6.19,-7.31,-7.39,0,*52
1514689379.39,41332,6.06,72394.0,-6.17,-7.35,-7.35,0,*57
1514689380.66,41333,6.06,72388.3,-6.19,-7.39,-7.43,0,*55
1514689381.92,41334,6.06,72394.8,-6.19,-7.53,-7.57,0,*5B
1514689383.17,41335,6.06,72398.3,-6.19,-7.43,-7.53,0,*5F
1514689384.41,41336,6.06,72406.3,-6.17,-7.43,-7.39,0,*5E
1514689385.63,41337,6.06,72410.3,-6.17,-7.49,-7.39,0,*55
1514689386.89,41338,6.06,72408.5,-6.19,-7.53,-7.43,0,*52
1514689388.16,41339,6.06,72408.0,-6.19,-7.31,-7.39,0,*5A
1514689389.44,41340,6.06,72414.5,-6.19,-7.31,-7.31,0,*5C
1514689390.66,41341,6.06,72412.8,-6.17,-7.15,-7.27,0,*52
1514689391.93,41342,6.06,72416.0,-6.19,-7.31,-7.39,0,*56
1514689393.21,41343,6.06,72418.3,-6.19,-7.31,-7.31,0,*5F
1514689394.48,41344,6.06,72420.3,-6.19,-7.39,-7.39,0,*58
1514689395.76,41345,6.06,72408.5,-6.19,-7.31,-7.31,0,*59
1514689397.0,41346,6.06,72404.3,-6.17,-7.27,-7.35,0,*57
1514689398.27,41347,6.06,72404.0,-6.19,-7.39,-7.31,0,*53
1514689399.54,41348,6.06,72386.5,-6.19,-7.39,-7.31,0,*5C
1514689400.82,41349,6.06,72382.3,-6.19,-7.31,-7.31,0,*55
1514689402.05,41350,6.06,72384.0,-6.19,-7.19,-7.15,0,*51
1514689403.28,41351,6.06,72378.8,-6.19,-7.19,-7.15,0,*50
1514689404.54,41352,6.06,72390.0,-6.19,-7.05,-7.15,0,*5E
1514689405.74,41353,6.06,72400.0,-6.17,-7.11,-7.11,0,*50
1514689407.0,41354,6.06,72392.8,-6.19,-7.05,-7.15,0,*58
1514689408.23,41355,6.06,72392.3,-6.19,-7.15,-7.15,0,*58
1514689409.49,41356,6.06,72394.8,-6.19,-7.05,-7.05,0,*5B
1514689410.7,41357,6.06,72412.5,-6.17,-7.11,-7.11,0,*54
1514689411.93,41358,6.06,72410.5,-6.19,-7.15,-7.15,0,*55
1514689413.13,41359,6.06,72414.5,-6.17,-7.11,-7.15,0,*5E
1514689414.37,41360,6.06,72412.8,-6.19,-7.19,-7.19,0,*5E
1514689415.57,41361,6.06,72412.0,-6.17,-7.11,-7.11,0,*51
1514689416.78,41362,6.06,72410.3,-6.17,-7.11,-7.15,0,*56
1514689418.05,41363,6.06,72414.5,-6.19,-7.05,-7.05,0,*5D
1514689419.29,41364,6.06,72416.3,-6.19,-7.15,-7.05,0,*5B
1514689420.54,41365,6.06,72420.3,-6.19,-7.15,-7.05,0,*5A
1514689421.78,41366,6.06,72426.8,-6.17,-7.01,-7.01,0,*56
1514689423.04,41367,6.06,72436.3,-6.19,-7.05,-7.19,0,*54
1514689424.27,41368,6.06,72436.8,-6.19,-7.15,-7.19,0,*5A
1514689425.49,41369,6.06,72438.0,-6.17,-7.01,-7.11,0,*58
1514689426.69,41370,6.06,72430.8,-6.17,-7.15,-7.15,0,*51
1514689427.92,41371,6.06,72428.0,-6.17,-7.01,-7.11,0,*51
1514689429.12,41372,6.06,72426.3,-6.17,-7.15,-7.15,0,*53
1514689430.35,41373,6.06,72432.5,-6.19,-7.15,-7.15,0,*5C
1514689431.6,41374,6.06,72428.0,-6.19,-7.15,-7.05,0,*5A
1514689432.84,41375,6.06,72426.5,-6.17,-7.01,-7.01,0,*54
1514689434.11,41376,6.06,72430.5,-6.19,-7.05,-7.05,0,*59
1514689435.36,41377,6.06,72436.0,-6.17,-7.01,-7.01,0,*56
1514689436.6,41378,6.06,72436.8,-6.19,-7.15,-7.05,0,*56
1514689437.85,41379,6.06,72434.5,-6.17,-7.01,-7.01,0,*58
1514689439.08,41380,6.06,72434.0,-6.17,-7.01,-7.11,0,*5F
1514689440.32,41381,6.06,72432.5,-6.17,-7.01,-7.01,0,*5F
1514689441.57,41382,6.06,72430.0,-6.17,-7.01,-7.01,0,*5C
1514689442.8,41383,6.06,72428.0,-6.17,-7.01,-7.11,0,*5C
1514689444.07,41384,6.06,72428.5,-6.19,-7.05,-7.01,0,*50
1514689445.28,41385,6.06,72430.3,-6.17,-7.11,-7.11,0,*5B
1514689446.55,41386,6.13,72438.3,-6.19,-7.05,-7.05,0,*56
1514689447.79,41387,6.06,72438.5,-6.17,-7.01,-7.01,0,*59
1514689449.04,41388,6.13,72448.3,-6.17,-7.01,-7.01,0,*56
1514689450.28,41389,6.06,72450.5,-6.17,-7.01,-7.01,0,*57
1514689451.53,41390,6.06,72450.5,-6.17,-7.01,-7.01,0,*5F
1514689452.77,41391,6.06,72456.5,-6.17,-7.01,-7.01,0,*5E
1514689454.02,41392,6.06,72452.3,-6.17,-7.01,-6.97,0,*53
1514689455.3,41393,6.06,72440.5,-6.19,-7.01,-7.01,0,*52
1514689456.55,41394,6.06,72430.3,-6.17,-6.97,-6.97,0,*5B
1514689457.79,41395,6.06,72428.8,-6.17,-6.97,-7.01,0,*54
1514689459.04,41396,6.06,72426.3,-6.17,-6.97,-7.01,0,*57
1514689460.29,41397,6.13,72432.0,-6.17,-7.01,-7.01,0,*58
1514689461.54,41398,6.06,72432.5,-6.17,-7.01,-7.01,0,*57
1514689462.74,41399,6.06,72438.5,-6.17,-7.11,-7.11,0,*56
1514689463.95,41400,6.06,72442.3,-6.17,-7.11,-7.11,0,*51
1514689465.15,41401,6.06,72438.5,-6.17,-7.11,-7.11,0,*50
1514689466.4,41402,6.06,72436.5,-6.17,-7.01,-7.01,0,*53
1514689467.65,41403,6.13,72440.8,-6.17,-7.01,-6.97,0,*5C
1514689468.9,41404,6.06,72438.0,-6.13,-6.93,-6.93,0,*51
1514689470.15,41405,6.13,72440.5,-6.17,-6.93,-6.93,0,*54
1514689471.4,41406,6.06,72430.0,-6.17,-6.93,-6.97,0,*53
1514689472.65,41407,6.06,72430.5,-6.17,-6.97,-6.93,0,*52
1514689473.9,41408,6.06,72434.0,-6.17,-6.97,-6.97,0,*59
1514689475.15,41409,6.06,72430.3,-6.17,-6.97,-6.97,0,*58
1514689476.39,41410,6.06,72424.0,-6.13,-7.05,-7.05,0,*54
1514689477.64,41411,6.06,72422.5,-6.13,-7.05,-6.97,0,*5F
1514689478.89,41412,6.06,72426.5,-6.13,-6.97,-6.97,0,*56
1514689480.14,41413,6.06,72424.5,-6.13,-6.97,-6.97,0,*57
1514689481.37,41414,6.06,72424.8,-6.13,-6.93,-6.89,0,*5B
1514689482.59,41415,6.06,72430.0,-6.13,-6.93,-6.89,0,*5A
1514689483.85,41416,6.06,72432.3,-6.13,-6.93,-6.93,0,*52
1514689485.1,41417,6.13,72436.5,-6.13,-6.93,-6.93,0,*53
1514689486.35,41418,6.06,72436.8,-6.13,-6.97,-6.97,0,*5C
1514689487.6,41419,6.06,72440.8,-6.17,-7.01,-7.01,0,*59
1514689488.84,41420,6.06,72436.0,-6.13,-6.97,-7.05,0,*5D
1514689490.09,41421,6.06,72440.8,-6.13,-6.97,-6.97,0,*56
1514689491.34,41422,6.13,72444.0,-6.13,-6.97,-6.97,0,*55
1514689492.59,41423,6.06,72436.8,-6.13,-6.97,-6.97,0,*54
1514689493.84,41424,6.06,72438.5,-6.13,-6.97,-6.97,0,*53
1514689495.1,41425,6.06,72434.5,-6.13,-6.97,-6.97,0,*52
1514689496.35,41426,6.06,72434.5,-6.13,-6.93,-6.97,0,*55
1514689497.6,41427,6.06,72438.3,-6.13,-6.93,-6.93,0,*50
1514689498.85,41428,6.06,72436.0,-6.13,-6.93,-6.93,0,*5F
1514689500.1,41429,6.06,72438.8,-6.13,-6.93,-6.93,0,*5E
1514689501.36,41430,6.06,72434.0,-6.13,-6.93,-6.93,0,*56
1514689502.61,41431,6.06,72432.0,-6.13,-6.93,-6.93,0,*57
1514689503.86,41432,6.06,72432.5,-6.13,-6.93,-6.93,0,*54
1514689505.11,41433,6.06,72436.8,-6.13,-6.93,-6.93,0,*55
1514689506.34,41434,6.06,72436.0,-6.13,-6.89,-6.93,0,*59
1514689507.56,41435,6.06,72442.5,-6.13,-6.89,-6.93,0,*58
1514689508.81,41436,6.13,72446.3,-6.13,-6.93,-6.93,0,*50
1514689510.06,41437,6.06,72442.5,-6.13,-6.93,-6.97,0,*55
1514689511.32,41438,6.06,72444.3,-6.13,-6.97,-6.93,0,*5A
1514689512.56,41439,6.06,72444.3,-6.13,-6.97,-7.05,0,*55
1514689513.81,41440,6.13,72448.3,-6.13,-6.97,-6.97,0,*51
1514689515.06,41441,6.06,72452.5,-6.13,-6.97,-6.97,0,*50
1514689516.32,41442,6.13,72454.0,-6.13,-6.93,-6.93,0,*53
1514689517.57,41443,6.06,72452.3,-6.13,-6.93,-6.93,0,*52
1514689518.82,41444,6.06,72450.3,-6.13,-6.93,-6.93,0,*55
1514689520.07,41445,6.06,72444.5,-6.13,-6.93,-6.93,0,*54
1514689521.32,41446,6.06,72442.3,-6.13,-6.93,-6.93,0,*57
1514689522.57,41447,6.06,72442.5,-6.13,-7.05,-6.97,0,*5C
1514689523.82,41448,6.13,72442.3,-6.13,-7.05,-6.97,0,*53
1514689525.06,41449,6.06,72438.8,-6.13,-7.05,-7.05,0,*58
1514689526.31,41450,6.06,72434.3,-6.13,-7.05,-6.97,0,*5A
1514689527.55,41451,6.13,72434.3,-6.13,-7.05,-7.05,0,*51
1514689528.78,41452,6.06,72428.0,-6.13,-7.05,-7.11,0,*57
1514689530.03,41453,6.06,72434.5,-6.13,-6.97,-6.97,0,*53
1514689531.28,41454,6.06,72430.5,-6.13,-6.97,-7.05,0,*5E
1514689532.52,41455,6.06,72438.8,-6.13,-7.05,-6.97,0,*5F
1514689533.75,41456,6.13,72442.0,-6.13,-7.05,-7.11,0,*53
1514689534.96,41457,6.06,72436.8,-6.13,-7.19,-7.19,0,*57
1514689536.16,41458,6.06,72436.0,-6.13,-7.11,-7.19,0,*50
1514689537.37,41459,6.13,72430.0,-6.13,-7.11,-7.11,0,*59
1514689538.58,41460,6.06,72428.3,-6.13,-7.11,-7.11,0,*53
1514689539.8,41461,6.06,72424.3,-6.13,-7.11,-7.05,0,*57
1514689541.01,41462,6.06,72416.0,-6.13,-7.11,-7.11,0,*51
1514689542.22,41463,6.06,72414.0,-6.13,-7.19,-7.23,0,*59
1514689543.45,41464,6.13,72414.5,-6.13,-7.05,-7.11,0,*52
1514689544.69,41465,6.13,72412.3,-6.13,-7.05,-7.05,0,*56
1514689545.92,41466,6.06,72406.5,-6.17,-7.11,-7.01,0,*50
1514689547.17,41467,6.06,72400.5,-6.13,-6.97,-6.97,0,*54
1514689548.42,41468,6.06,72402.5,-6.13,-6.97,-6.97,0,*5B
1514689549.66,41469,6.06,72402.5,-6.13,-6.97,-7.05,0,*50
1514689550.91,41470,6.06,72404.0,-6.13,-6.97,-7.05,0,*58
1514689552.15,41471,6.06,72414.5,-6.13,-6.97,-7.05,0,*59
1514689553.4,41472,6.06,72420.3,-6.13,-6.97,-6.97,0,*50
1514689554.65,41473,6.13,72430.8,-6.13,-6.97,-7.05,0,*5B
1514689555.88,41474,6.06,72428.5,-6.13,-7.05,-7.11,0,*53
1514689557.08,41475,6.06,72432.8,-6.13,-7.23,-7.23,0,*57
1514689558.29,41476,6.06,72432.3,-6.13,-7.19,-7.19,0,*54
1514689559.53,41477,6.13,72442.3,-6.13,-6.97,-7.05,0,*5F
1514689560.78,41478,6.06,72440.5,-6.13,-7.05,-7.05,0,*5A
1514689562.02,41479,6.06,72438.3,-6.13,-7.05,-7.05,0,*5B
1514689563.22,41480,6.06,72438.5,-6.13,-7.11,-7.19,0,*55
1514689564.43,41481,6.13,72442.3,-6.13,-7.11,-7.19,0,*54
1514689565.65,41482,6.13,72440.3,-6.13,-7.11,-7.05,0,*5A
1514689566.87,41483,6.06,72436.0,-6.13,-7.11,-7.05,0,*5B
1514689568.1,41484,6.06,72440.8,-6.13,-6.97,-7.19,0,*5E
1514689569.35,41485,6.13,72446.5,-6.13,-7.05,-6.97,0,*52
1514689570.59,41486,6.06,72446.0,-6.13,-6.97,-7.05,0,*51
1514689571.84,41487,6.13,72460.5,-6.13,-6.97,-7.05,0,*50
1514689573.08,41488,6.06,72456.5,-6.13,-6.97,-7.05,0,*5F
1514689574.31,41489,6.06,72462.5,-6.17,-7.01,-7.11,0,*51
1514689575.51,41490,6.13,72466.5,-6.17,-7.15,-7.11,0,*5C
1514689576.71,41491,6.06,72464.5,-6.17,-7.15,-7.15,0,*59
1514689577.94,41492,6.13,72464.0,-6.17,-7.01,-7.11,0,*5B
1514689579.19,41493,6.06,72464.0,-6.17,-7.01,-7.01,0,*5B
1514689580.43,41494,6.13,72468.3,-6.17,-7.01,-7.01,0,*5C
1514689581.64,41495,6.06,72470.3,-6.17,-7.11,-7.15,0,*59
1514689582.88,41496,6.06,72474.0,-6.13,-7.05,-6.97,0,*50
1514689584.13,41497,6.06,72470.8,-6.13,-7.05,-7.05,0,*5B
1514689585.35,41498,6.06,72468.8,-6.13,-7.05,-7.11,0,*51
1514689586.58,41499,6.06,72466.8,-6.13,-7.23,-7.31,0,*56
1514689587.83,41500,6.13,72470.0,-6.13,-7.35,-7.31,0,*50
1514689589.05,41501,6.06,72450.8,-6.13,-7.49,-7.57,0,*5A
1514689590.28,41502,6.13,72436.5,-6.13,-7.57,-7.49,0,*59
1514689591.51,41503,6.06,72432.0,-6.13,-7.57,-7.49,0,*58
1514689592.76,41504,6.13,72428.8,-6.13,-7.35,-7.35,0,*50
1514689594.01,41505,6.06,72420.8,-6.17,-7.27,-7.27,0,*55
1514689595.21,41506,6.13,72420.0,-6.17,-7.23,-7.23,0,*56
1514689596.41,41507,6.06,72412.5,-6.17,-7.11,-7.15,0,*53
1514689597.61,41508,6.06,72406.8,-6.17,-7.15,-7.15,0,*58
1514689598.81,41509,6.06,72400.3,-6.17,-7.15,-7.11,0,*5D
1514689600.02,41510,6.06,72406.3,-6.17,-7.15,-7.11,0,*55
1514689601.22,41511,6.13,72404.5,-6.17,-7.11,-7.11,0,*50
1514689602.48,41512,6.13,72406.8,-6.19,-7.05,-7.15,0,*5C
1514689603.72,41513,6.13,72412.0,-6.17,-7.01,-7.01,0,*52
1514689604.93,41514,6.06,72422.3,-6.17,-7.11,-7.15,0,*51
1514689606.13,41515,6.06,72414.8,-6.17,-7.11,-7.15,0,*50
1514689607.33,41516,6.06,72416.0,-6.17,-7.23,-7.15,0,*52
1514689608.54,41517,6.06,72438.8,-6.17,-7.11,-7.11,0,*56
1514689609.78,41518,6.06,72452.3,-6.17,-7.01,-7.01,0,*59
1514689610.99,41519,6.06,72462.3,-6.17,-7.11,-7.11,0,*58
1514689612.24,41520,6.06,72468.8,-6.17,-7.01,-7.01,0,*52
1514689613.48,41521,6.13,72478.8,-6.17,-7.01,-7.01,0,*53
1514689614.73,41522,6.13,72480.3,-6.17,-7.01,-7.01,0,*50
1514689615.97,41523,6.13,72472.0,-6.17,-7.01,-7.01,0,*51
1514689617.18,41524,6.06,72466.0,-6.17,-7.11,-7.11,0,*56
1514689618.39,41525,6.13,72476.0,-6.17,-7.11,-7.11,0,*57
1514689619.64,41526,6.13,72484.3,-6.19,-7.15,-7.27,0,*5B
1514689620.84,41527,6.13,72492.3,-6.17,-7.23,-7.23,0,*55
1514689622.04,41528,6.06,72466.3,-6.17,-7.49,-7.49,0,*5A
1514689623.26,41529,6.06,72422.8,-6.17,-7.61,-7.49,0,*51
1514689624.51,41530,6.13,72422.5,-6.19,-7.53,-7.39,0,*51
1514689625.79,41531,6.13,72412.0,-6.19,-7.43,-7.43,0,*5C
1514689627.07,41532,6.06,72406.5,-6.19,-7.43,-7.31,0,*5A
1514689628.35,41533,6.06,72424.8,-6.19,-7.43,-7.39,0,*53
1514689629.6,41534,6.13,72434.5,-6.17,-7.35,-7.39,0,*5B
1514689630.84,41535,6.13,72424.3,-6.17,-7.39,-7.39,0,*56
1514689632.06,41536,6.13,72412.8,-6.17,-7.35,-7.49,0,*5E
1514689633.3,41537,6.13,72406.5,-6.17,-7.35,-7.35,0,*54
1514689634.58,41538,6.13,72384.5,-6.19,-7.31,-7.31,0,*55
1514689635.83,41539,6.06,72376.0,-6.19,-7.31,-7.19,0,*5E
1514689637.11,41540,6.13,72384.5,-6.19,-7.27,-7.27,0,*5A
1514689638.38,41541,6.06,72382.3,-6.19,-7.27,-7.27,0,*5B
1514689639.66,41542,6.06,72384.3,-6.19,-7.31,-7.27,0,*5F
1514689640.91,41543,6.13,72400.8,-6.19,-7.19,-7.27,0,*54
1514689642.11,41544,6.06,72404.3,-6.17,-7.15,-7.19,0,*5C
1514689643.37,41545,6.13,72408.5,-6.19,-7.05,-7.15,0,*5E
1514689644.61,41546,6.06,72410.0,-6.19,-7.15,-7.05,0,*5D
1514689645.84,41547,6.13,72420.0,-6.19,-7.15,-7.19,0,*51
1514689647.07,41548,6.06,72420.0,-6.19,-7.15,-7.15,0,*52
1514689648.32,41549,6.06,72430.3,-6.19,-7.05,-7.15,0,*52
1514689649.57,41550,6.13,72438.0,-6.17,-7.01,-7.01,0,*55
1514689650.82,41551,6.13,72432.8,-6.17,-7.01,-7.01,0,*54
1514689652.09,41552,6.13,72452.8,-6.19,-7.05,-7.05,0,*59
1514689653.33,41553,6.06,72456.0,-6.17,-7.01,-7.01,0,*56
1514689654.58,41554,6.13,72458.8,-6.19,-7.15,-7.05,0,*5E
1514689655.78,41555,6.13,72448.3,-6.17,-7.23,-7.23,0,*50
1514689656.98,41556,6.06,72446.5,-6.17,-7.23,-7.15,0,*56
1514689658.23,41557,6.13,72464.3,-6.19,-7.31,-7.19,0,*56
1514689659.5,41558,6.13,72470.5,-6.19,-7.39,-7.27,0,*5C
1514689660.74,41559,6.13,72470.3,-6.17,-7.39,-7.27,0,*53
1514689662.03,41560,6.13,72468.8,-6.19,-7.57,-7.43,0,*5D
1514689663.27,41561,6.06,72466.3,-6.17,-7.39,-7.39,0,*57
1514689664.49,41562,6.06,72462.3,-6.17,-7.49,-7.39,0,*53
1514689665.74,41563,6.13,72466.8,-6.19,-7.43,-7.53,0,*5A
1514689667.02,41564,6.13,72466.3,-6.19,-7.43,-7.43,0,*5C
1514689668.29,41565,6.13,72472.0,-6.19,-7.39,-7.39,0,*5D
1514689669.56,41566,6.06,72466.0,-6.19,-7.39,-7.27,0,*51
1514689670.84,41567,6.13,72460.8,-6.19,-7.31,-7.27,0,*58
1514689672.11,41568,6.13,72454.8,-6.19,-7.31,-7.31,0,*50
1514689673.39,41569,6.13,72438.0,-6.19,-7.31,-7.31,0,*51
1514689674.64,41570,6.06,72414.3,-6.17,-7.35,-7.27,0,*54
1514689675.91,41571,6.13,72422.5,-6.19,-7.31,-7.31,0,*58
1514689677.18,41572,6.06,72398.8,-6.19,-7.39,-7.39,0,*5B
1514689678.45,41573,6.13,72386.0,-6.19,-7.39,-7.35,0,*56
1514689679.73,41574,6.06,72402.5,-6.19,-7.39,-7.39,0,*5D
1514689681.0,41575,6.13,72402.0,-6.19,-7.31,-7.39,0,*54
1514689682.28,41576,6.13,72392.0,-6.19,-7.43,-7.43,0,*5F
1514689683.55,41577,6.06,72392.5,-6.19,-7.39,-7.39,0,*5E
1514689684.83,41578,6.13,72390.5,-6.19,-7.43,-7.39,0,*5C
1514689686.11,41579,6.13,72382.5,-6.19,-7.31,-7.39,0,*58
1514689687.35,41580,6.13,72398.0,-6.21,-7.39,-7.31,0,*55
1514689688.59,41581,6.13,72390.5,-6.21,-7.39,-7.43,0,*51
1514689689.87,41582,6.13,72382.8,-6.23,-7.43,-7.35,0,*5C
1514689691.11,41583,6.06,72394.3,-6.21,-7.31,-7.31,0,*5E
1514689692.36,41584,6.13,72396.5,-6.21,-7.31,-7.31,0,*59
1514689693.64,41585,6.13,72390.0,-6.23,-7.43,-7.43,0,*5A
1514689694.92,41586,6.13,72404.8,-6.23,-7.35,-7.43,0,*58
1514689696.16,41587,6.13,72382.3,-6.21,-7.31,-7.31,0,*5A
1514689697.4,41588,6.13,72380.8,-6.21,-7.39,-7.31,0,*5D
1514689698.65,41589,6.13,72382.3,-6.21,-7.35,-7.31,0,*50
1514689699.9,41590,6.06,72368.8,-6.21,-7.31,-7.31,0,*5C
1514689701.14,41591,6.13,72384.8,-6.21,-7.31,-7.31,0,*5D
1514689702.34,41592,6.13,72394.8,-6.21,-7.19,-7.19,0,*5E
1514689703.57,41593,6.13,72398.0,-6.21,-7.19,-7.27,0,*52
1514689704.77,41594,6.13,72404.5,-6.21,-7.19,-7.19,0,*58
1514689705.98,41595,6.13,72408.5,-6.21,-7.19,-7.19,0,*59
1514689707.23,41596,6.13,72424.3,-6.19,-7.05,-7.15,0,*50
1514689708.47,41597,6.13,72432.5,-6.21,-7.05,-7.05,0,*5B
1514689709.71,41598,6.13,72432.3,-6.21,-7.05,-7.05,0,*54
1514689710.94,41599,6.13,72406.0,-6.19,-7.15,-7.15,0,*5E
1514689712.14,41600,6.13,72398.0,-6.21,-7.19,-7.19,0,*56
1514689713.37,41601,6.13,72400.0,-6.23,-7.19,-7.19,0,*55
1514689714.61,41602,6.13,72410.3,-6.21,-7.05,-7.05,0,*54
1514689715.89,41603,6.13,72418.8,-6.19,-7.01,-7.01,0,*5E
1514689717.16,41604,6.13,72422.0,-6.19,-7.01,-7.01,0,*59
1514689718.41,41605,6.13,72418.0,-6.19,-7.05,-7.15,0,*59
1514689719.65,41606,6.13,72410.3,-6.19,-7.19,-7.15,0,*57
1514689720.88,41607,6.13,72402.3,-6.19,-7.19,-7.19,0,*5A